FW5487 Weather Reports


Display with metric or nautical units.
time (UTC)temp
F
wind
direction
speed
MPH
gust
MPH
rain 1hr
in
rain 24hr
in
rain mn
in
humidity
%
barometer
mb
20260507003704 59 357 5.0 10.0 0.00 0.24 0.11 45 1000.0
20260507003203 60 4 5.0 9.0 0.00 0.24 0.11 45 1000.0
20260507002704 60 31 2.0 6.0 0.00 0.24 0.11 45 1000.0
20260507002204 60 14 3.0 8.0 0.00 0.24 0.11 44 1000.0
20260507001704 61 5 4.0 9.0 0.00 0.24 0.11 44 1000.0
20260507001203 61 13 2.0 7.0 0.00 0.24 0.11 44 1000.0
20260507000703 61 348 5.0 7.0 0.00 0.24 0.11 43 1000.0
20260506235704 61 348 5.0 7.0 0.00 0.24 0.11 44 1000.0
20260506235203 61 8 4.0 9.0 0.00 0.24 0.11 43 1000.0
20260506234703 61 30 5.0 10.0 0.00 0.24 0.11 42 1000.0
20260506234204 62 8 3.0 7.0 0.00 0.24 0.11 44 1000.0
20260506233704 61 8 5.0 9.0 0.00 0.24 0.11 42 1000.0
20260506232704 62 4 5.0 12.0 0.00 0.24 0.11 43 1000.0
20260506231703 62 15 5.0 10.0 0.00 0.25 0.11 42 1000.0
20260506231204 62 357 4.0 7.0 0.00 0.25 0.11 43 1000.0
20260506230703 62 14 5.0 10.0 0.00 0.25 0.11 40 1000.0
20260506230203 62 14 5.0 10.0 0.00 0.25 0.11 41 1000.0
20260506225204 62 11 5.0 10.0 0.00 0.27 0.11 42 1000.0
20260506224703 62 29 5.0 18.0 0.00 0.28 0.11 41 1000.0
20260506224204 62 16 7.0 17.0 0.00 0.28 0.11 41 1000.0
20260506223703 63 17 5.0 9.0 0.00 0.28 0.11 41 1000.0
20260506223203 63 350 4.0 7.0 0.00 0.28 0.11 39 1000.0
20260506222703 64 346 5.0 9.0 0.00 0.28 0.11 40 1000.0
20260506222203 63 7 6.0 10.0 0.00 0.28 0.11 41 1000.0
20260506221704 63 335 6.0 9.0 0.00 0.28 0.11 42 1000.0
20260506221204 63 0 6.0 10.0 0.00 0.29 0.11 42 1000.0
20260506220703 63 11 4.0 12.0 0.00 0.29 0.11 43 1000.0
20260506220203 63 325 7.0 14.0 0.00 0.29 0.11 43 1000.0
20260506215704 63 346 7.0 13.0 0.00 0.29 0.11 41 1000.0
20260506215204 63 347 5.0 9.0 0.00 0.30 0.11 42 1000.0
20260506214704 63 352 6.0 14.0 0.00 0.30 0.11 41 1000.0
20260506213703 64 346 6.0 15.0 0.00 0.31 0.11 44 1000.0
20260506213203 64 330 6.0 14.0 0.00 0.31 0.11 42 1000.0
20260506212704 64 329 5.0 9.0 0.00 0.31 0.11 40 1000.0
20260506212204 63 341 5.0 9.0 0.00 0.31 0.11 42 1000.0
20260506211704 64 1 4.0 9.0 0.00 0.31 0.11 43 1000.0
20260506211203 63 335 6.0 10.0 0.00 0.31 0.11 44 1000.0
20260506210704 63 314 4.0 7.0 0.00 0.31 0.11 43 1000.0
20260506210203 63 11 3.0 7.0 0.00 0.31 0.11 43 1000.0
20260506205204 64 26 2.0 8.0 0.00 0.31 0.11 44 1000.0
20260506204204 64 330 4.0 10.0 0.00 0.31 0.11 42 1000.0
20260506202704 63 348 6.0 12.0 0.00 0.31 0.11 44 1000.0
20260506202204 63 318 6.0 14.0 0.00 0.31 0.11 44 1000.0
20260506201704 63 335 5.0 8.0 0.00 0.31 0.11 45 1000.0
20260506201203 63 303 5.0 9.0 0.00 0.31 0.11 44 1000.0
20260506200703 63 0 7.0 14.0 0.00 0.31 0.11 43 1000.0
20260506200204 63 339 1.0 6.0 0.00 0.31 0.11 43 1000.0
20260506195704 63 359 6.0 8.0 0.00 0.31 0.11 42 1000.0
20260506195204 63 316 6.0 10.0 0.00 0.31 0.11 41 1000.0
20260506194703 63 336 5.0 14.0 0.00 0.31 0.11 41 1000.0
20260506194203 63 342 7.0 14.0 0.00 0.31 0.11 41 1000.0
20260506193704 63 358 3.0 8.0 0.00 0.31 0.11 40 1000.0
20260506193204 62 325 9.0 16.0 0.00 0.31 0.11 40 1000.0
20260506192704 63 332 7.0 15.0 0.00 0.31 0.11 41 1000.0
20260506192204 63 329 6.0 10.0 0.00 0.31 0.11 42 1000.0
20260506191703 62 314 6.0 12.0 0.00 0.31 0.11 43 1000.0
20260506191204 62 316 7.0 13.0 0.00 0.31 0.11 41 1000.0
20260506190203 62 347 6.0 9.0 0.00 0.31 0.11 42 1000.0
20260506185704 62 353 4.0 9.0 0.00 0.31 0.11 41 1000.0
20260506185203 62 358 6.0 12.0 0.00 0.31 0.11 41 1000.0
20260506184706 62 315 7.0 16.0 0.00 0.31 0.11 41 1000.0
20260506182704 62 341 6.0 12.0 0.00 0.31 0.11 44 1000.0
20260506181703 61 347 6.0 12.0 0.00 0.31 0.11 50 1000.0
20260506181204 60 330 4.0 15.0 0.00 0.31 0.11 48 1000.0
20260506180203 61 298 4.0 9.0 0.00 0.31 0.11 52 1000.0
20260506175704 61 306 6.0 12.0 0.00 0.31 0.11 50 1000.0
20260506175203 60 38 5.0 10.0 0.00 0.31 0.11 50 1000.0
20260506174703 60 307 7.0 13.0 0.00 0.31 0.11 52 1000.0
20260506174204 60 319 6.0 14.0 0.00 0.31 0.11 51 1000.0
20260506173704 60 329 2.0 7.0 0.00 0.31 0.11 53 1000.0
20260506173203 60 301 5.0 13.0 0.00 0.31 0.11 50 1000.0
20260506172704 59 313 6.0 10.0 0.00 0.31 0.11 54 1000.0
20260506172203 59 314 5.0 9.0 0.00 0.31 0.11 51 1000.0
20260506171703 59 317 6.0 12.0 0.00 0.31 0.11 52 1000.0
20260506171204 59 13 5.0 9.0 0.00 0.31 0.11 53 1000.0
20260506170704 58 310 5.0 9.0 0.00 0.31 0.11 51 1000.0
20260506170203 58 328 7.0 13.0 0.00 0.31 0.11 51 1000.0
20260506165703 59 327 3.0 9.0 0.00 0.31 0.11 53 1000.0
20260506165204 58 348 7.0 14.0 0.00 0.31 0.11 56 1000.0
20260506164704 58 337 6.0 9.0 0.00 0.31 0.11 52 1000.0
20260506164203 58 340 3.0 9.0 0.00 0.31 0.11 54 1000.0
20260506163704 58 20 3.0 7.0 0.00 0.31 0.11 54 1000.0
20260506163203 57 315 5.0 9.0 0.00 0.31 0.11 55 1000.0
20260506162204 58 304 3.0 10.0 0.00 0.31 0.11 55 1000.0
20260506161703 57 340 6.0 10.0 0.00 0.31 0.11 54 1000.0
20260506161204 57 322 5.0 8.0 0.00 0.31 0.11 54 1000.0
20260506160704 57 17 5.0 10.0 0.00 0.31 0.11 55 1000.0
20260506160204 57 342 5.0 10.0 0.00 0.31 0.11 55 1000.0
20260506155703 57 309 5.0 10.0 0.00 0.31 0.11 54 1000.0
20260506155204 57 14 3.0 6.0 0.00 0.31 0.11 55 1000.0
20260506154204 57 352 4.0 9.0 0.00 0.31 0.11 54 1000.0
20260506153703 57 337 3.0 9.0 0.00 0.31 0.11 55 1000.0
20260506153204 57 348 2.0 7.0 0.00 0.31 0.11 55 1000.0
20260506152704 57 28 4.0 7.0 0.00 0.31 0.11 55 1000.0
20260506152203 57 345 2.0 8.0 0.00 0.31 0.11 54 1000.0
20260506151204 56 5 5.0 8.0 0.00 0.31 0.11 54 1000.0
20260506150703 56 340 3.0 6.0 0.00 0.31 0.11 58 1000.0
20260506150203 56 349 4.0 7.0 0.00 0.31 0.11 58 1000.0
20260506145704 56 7 2.0 7.0 0.00 0.31 0.11 59 1000.0
20260506144703 55 351 3.0 6.0 0.00 0.31 0.11 63 1000.0
20260506143704 55 1 3.0 7.0 0.00 0.31 0.11 65 1000.0
20260506143203 55 356 3.0 8.0 0.00 0.31 0.11 66 1000.0
20260506142704 54 11 2.0 6.0 0.00 0.31 0.11 66 1000.0
20260506142203 54 15 4.0 8.0 0.00 0.31 0.11 63 1000.0
20260506141703 54 3 3.0 6.0 0.00 0.31 0.11 67 1000.0
20260506141204 53 55 2.0 6.0 0.00 0.31 0.11 68 1000.0
20260506140704 53 30 3.0 7.0 0.00 0.31 0.11 67 1000.0
20260506140203 53 39 3.0 5.0 0.00 0.31 0.11 71 1000.0
20260506135203 52 73 1.0 2.0 0.00 0.31 0.11 78 1000.0
20260506134704 52 28 1.0 5.0 0.00 0.31 0.11 75 1000.0
20260506133204 51 350 2.0 5.0 0.00 0.31 0.11 79 1000.0
20260506132704 51 1 1.0 5.0 0.00 0.31 0.11 81 1000.0
20260506132203 50 13 2.0 6.0 0.00 0.31 0.11 81 1000.0
20260506131703 50 31 0.0 3.0 0.00 0.31 0.11 85 1000.0
20260506131204 50 12 3.0 6.0 0.00 0.31 0.11 83 1000.0
20260506130704 49 3 2.0 5.0 0.00 0.31 0.11 87 1000.0
20260506130203 49 11 2.0 3.0 0.00 0.31 0.11 89 1000.0
20260506125704 49 325 2.0 3.0 0.00 0.31 0.11 90 1000.0
20260506125203 49 332 2.0 3.0 0.00 0.31 0.11 90 1000.0
20260506123703 48 326 3.0 6.0 0.00 0.31 0.11 90 1000.0
20260506122204 48 325 4.0 7.0 0.00 0.31 0.11 92 1000.0
20260506121703 48 342 3.0 8.0 0.00 0.31 0.11 92 1000.0
20260506121203 47 307 4.0 9.0 0.00 0.31 0.11 93 1000.0
20260506120704 48 327 4.0 7.0 0.00 0.31 0.11 95 1000.0
20260506120204 48 309 4.0 9.0 0.00 0.31 0.11 95 1000.0
20260506115703 48 294 3.0 5.0 0.00 0.31 0.11 94 1000.0
20260506115203 48 289 3.0 7.0 0.00 0.31 0.11 94 1000.0
20260506114704 48 310 3.0 7.0 0.00 0.31 0.11 94 1000.0
20260506113703 48 324 4.0 7.0 0.00 0.31 0.11 93 1000.0
20260506113203 48 322 4.0 8.0 0.00 0.31 0.11 93 1000.0
20260506112704 48 323 3.0 9.0 0.00 0.31 0.11 93 1000.0
20260506112204 48 324 5.0 9.0 0.00 0.31 0.11 94 1000.0
20260506111703 48 326 3.0 8.0 0.00 0.31 0.11 94 1000.0
20260506111204 48 331 3.0 6.0 0.00 0.31 0.11 94 1000.0
20260506110704 48 299 2.0 3.0 0.00 0.31 0.11 94 1000.0
20260506105704 48 349 2.0 5.0 0.00 0.31 0.11 94 1000.0
20260506105203 48 350 2.0 7.0 0.00 0.31 0.11 95 1000.0
20260506104703 48 332 2.0 3.0 0.00 0.31 0.11 95 1000.0
20260506104203 48 323 2.0 2.0 0.00 0.31 0.11 95 1000.0
20260506103704 48 288 2.0 3.0 0.00 0.31 0.11 95 1000.0
20260506103204 48 7 0.0 2.0 0.00 0.31 0.11 95 1000.0
20260506102703 48 272 2.0 6.0 0.00 0.31 0.11 95 1000.0
20260506102203 48 297 2.0 7.0 0.00 0.31 0.11 96 1000.0
20260506101703 48 315 3.0 9.0 0.00 0.31 0.11 96 1000.0
20260506101203 47 313 6.0 9.0 0.00 0.32 0.11 96 1000.0
20260506100204 48 312 3.0 8.0 0.00 0.33 0.11 96 1000.0
20260506095704 48 311 4.0 8.0 0.00 0.34 0.11 96 1000.0
20260506095204 48 321 5.0 9.0 0.00 0.35 0.11 96 1000.0
20260506094703 48 326 4.0 8.0 0.00 0.36 0.11 96 1000.0
20260506094204 48 330 2.0 5.0 0.00 0.38 0.11 96 1000.0
20260506093704 48 333 3.0 7.0 0.00 0.40 0.11 96 1000.0
20260506093204 48 326 4.0 7.0 0.00 0.43 0.11 97 1000.0
20260506092703 47 318 5.0 7.0 0.00 0.48 0.11 97 1000.0
20260506091204 47 299 3.0 7.0 0.01 0.50 0.11 97 1000.0
20260506090704 48 347 3.0 7.0 0.01 0.50 0.11 97 1000.0
20260506090204 47 339 3.0 6.0 0.01 0.50 0.11 97 1000.0
20260506085203 47 343 3.0 7.0 0.01 0.50 0.11 97 1000.0
20260506084704 48 4 3.0 6.0 0.01 0.50 0.11 97 1000.0
20260506084204 48 331 2.0 5.0 0.01 0.50 0.11 97 1000.0
20260506083703 48 354 3.0 7.0 0.01 0.50 0.11 97 1000.0
20260506083203 48 317 5.0 8.0 0.01 0.50 0.11 97 1000.0
20260506082704 48 309 5.0 8.0 0.01 0.50 0.11 97 1000.0
20260506082204 48 324 4.0 7.0 0.02 0.50 0.11 97 1000.0
20260506081703 48 335 5.0 7.0 0.01 0.49 0.10 97 1000.0
20260506081204 48 342 2.0 3.0 0.01 0.49 0.10 96 1000.0
20260506080703 48 333 2.0 3.0 0.02 0.49 0.10 96 1000.0
20260506080203 48 337 2.0 3.0 0.02 0.49 0.10 96 1000.0
20260506073204 48 305 1.0 2.0 0.04 0.49 0.10 96 1000.0
20260506072704 48 199 0.0 0.0 0.04 0.49 0.10 96 1000.0
20260506071703 48 236 2.0 3.0 0.04 0.48 0.09 96 1000.0
20260506071204 48 280 1.0 3.0 0.04 0.48 0.09 96 1000.0
20260506062204 47 76 0.0 3.0 0.06 0.45 0.06 96 1000.0
20260506061704 47 163 3.0 5.0 0.05 0.44 0.05 96 1000.0
20260506061204 47 166 2.0 3.0 0.05 0.44 0.05 96 1000.0
20260506060203 47 234 0.0 0.0 0.03 0.42 0.03 96 1000.0
20260506050704 47 121 1.0 2.0 0.05 0.39 0.00 96 1000.0
20260506050203 47 85 0.0 2.0 0.06 0.39 0.00 96 1000.0
20260506044703 47 38 0.0 2.0 0.07 0.38 0.38 96 1000.0
20260506044204 47 64 3.0 5.0 0.08 0.38 0.38 96 1000.0
20260506043703 47 95 2.0 6.0 0.08 0.38 0.38 96 1000.0
20260506043203 47 65 1.0 6.0 0.09 0.38 0.38 96 1000.0
20260506042703 47 122 2.0 3.0 0.09 0.38 0.38 96 1000.0
20260506041704 47 91 2.0 2.0 0.08 0.36 0.36 96 1000.0
20260506041203 47 37 0.0 2.0 0.07 0.35 0.35 96 1000.0
20260506040704 47 17 0.0 2.0 0.06 0.34 0.34 96 1000.0
20260506040204 47 291 1.0 2.0 0.05 0.33 0.33 96 1000.0
20260506035704 47 337 0.0 2.0 0.05 0.32 0.32 96 1000.0
20260506035203 47 11 0.0 2.0 0.04 0.31 0.31 96 1000.0
20260506034204 47 249 2.0 2.0 0.04 0.30 0.30 96 1000.0
20260506033703 47 11 0.0 2.0 0.04 0.30 0.30 96 1000.0
20260506033203 47 56 2.0 3.0 0.03 0.29 0.29 96 1000.0
20260506032704 47 343 1.0 2.0 0.03 0.29 0.29 96 1000.0
20260506031704 47 62 0.0 2.0 0.02 0.28 0.28 95 1000.0
20260506031203 47 60 2.0 5.0 0.02 0.28 0.28 95 1000.0
20260506025704 47 25 3.0 5.0 0.01 0.27 0.27 95 1000.0
20260506024704 47 20 2.0 3.0 0.00 0.26 0.26 95 1000.0
20260506024203 47 4 1.0 2.0 0.00 0.26 0.26 94 1000.0
20260506023704 47 153 1.0 3.0 0.00 0.26 0.26 94 1000.0
20260506023204 47 36 3.0 6.0 0.00 0.26 0.26 94 1000.0
20260506022203 47 22 1.0 3.0 0.00 0.26 0.26 94 1000.0
20260506021703 47 23 3.0 6.0 0.00 0.26 0.26 93 1000.0
20260506021204 47 33 2.0 7.0 0.00 0.26 0.26 93 1000.0
20260506020704 47 350 3.0 7.0 0.00 0.26 0.26 94 1000.0
20260506015703 47 34 3.0 7.0 0.00 0.26 0.26 94 1000.0
20260506015203 47 20 2.0 8.0 0.00 0.26 0.26 94 1000.0
20260506013704 47 51 2.0 5.0 0.00 0.26 0.26 94 1000.0
20260506012704 47 36 2.0 5.0 0.00 0.26 0.26 94 1000.0
20260506012204 47 42 5.0 9.0 0.00 0.26 0.26 94 1000.0
20260506011703 47 37 6.0 12.0 0.00 0.26 0.26 94 1000.0
20260506011203 46 37 7.0 12.0 0.00 0.26 0.26 95 1000.0
20260506010704 47 28 6.0 14.0 0.00 0.26 0.26 95 1000.0
20260506010204 47 353 4.0 12.0 0.00 0.26 0.26 96 1000.0
20260506005207 48 344 2.0 7.0 0.00 0.26 0.26 96 1000.0
20260506004204 47 13 4.0 9.0 0.00 0.26 0.26 96 1000.0